Regional Weather Roundup
Issued by NWS

Home | Current Version | Previous Version | Graphics & Text | Print | Product List | Glossary On
Versions: 1 2 3 4 5 6 7 8 9 10 11 12 13 14 15 16 17 18 19 20 21 22 23 24 25 26 27 28 29 30 31 32 33 34 35 36 37 38 39 40 41 42 43 44 45 46 47 48 49 50
000
ASUS43 KIND 120759
RWRIN

WEATHER ROUNDUP FOR INDIANA
NATIONAL WEATHER SERVICE INDIANAPOLIS IN
400 AM EDT SAT JUL 12 2014

NOTE: "FAIR" INDICATES FEW OR NO CLOUDS BELOW 12,000 FEET WITH NO
SIGNIFICANT WEATHER AND/OR OBSTRUCTIONS TO VISIBILITY.

* - STATION DOES NOT REPORT WEATHER SUCH AS PRECIPITATION OR FOG.

+ - STATION NOT QUALITY CONTROLLED BY THE NATIONAL WEATHER SERVICE.
    USE DATA WITH CAUTION...ESPECIALLY DEWPOINT AND RELATIVE
    HUMIDITY OBSERVATIONS.

INZ001>003-010>013-019-020-120900-
NORTHWEST INDIANA

CITY           SKY/WX    TMP DP  RH WIND       PRES   REMARKS
KNOX *+        CLOUDY    68  62  80 CALM      30.12F
MONTICELLO +   CLOUDY    69  64  82 CALM      30.13S
RENSSELAER +   CLOUDY    70  63  78 S6        30.12F
VALPARAISO     CLOUDY    69  61  75 S5        30.12F

$$

LMZ046-743>745-120900-
SOUTHERN LAKE MICHIGAN

STATION/POSITION TIME  TEMP WIND        PRES
                       AIR  DIR/SP/G
                 (UTC) (F)  (DEG/KT/KT) (MB)
MICHIGAN CITY    0700   73  150/  7/ 11   N/A

$$

INZ004-005-014>016-021>024-120900-
NORTH CENTRAL INDIANA

CITY           SKY/WX    TMP DP  RH WIND       PRES   REMARKS
GOSHEN         CLOUDY    68  63  84 CALM      30.14S
SOUTH BEND     MOCLDY    71  60  68 CALM      30.14S
WARSAW +       CLOUDY    68  63  83 CALM      30.14F

$$

INZ006>009-017-018-025>027-120900-
NORTHEAST INDIANA

CITY           SKY/WX    TMP DP  RH WIND       PRES   REMARKS
ANGOLA *+      MOCLDY    66  59  77 CALM      30.15F
FORT WAYNE     CLOUDY    69  63  81 S3        30.16F

$$

INZ028-029-035-036-043>045-051>053-120900-
WEST CENTRAL INDIANA

CITY           SKY/WX    TMP DP  RH WIND       PRES   REMARKS
GREENCASTLE +  CLOUDY    66  63  88 CALM      30.16F
LAFAYETTE      CLOUDY    69  62  78 CALM      30.13F
TERRE HAUTE    CLOUDY    69  65  86 E5        30.15F

$$

INZ030>032-037>040-046>048-054>057-064-065-120900-
CENTRAL INDIANA

CITY           SKY/WX    TMP DP  RH WIND       PRES   REMARKS
INDIANAPOLIS   CLOUDY    69  61  75 S5        30.15F
-EAGLE CREEK   CLOUDY    68  62  81 CALM      30.15F
KOKOMO *+      CLOUDY    66  63  88 CALM      30.15F
MT COMFORT *+  MOCLDY    63 N/A N/A CALM      30.17F
SHELBYVILLE    PTCLDY    64  60  87 CALM      30.16S

$$

INZ033-034-041-042-049-050-058-059-120900-
EAST CENTRAL INDIANA

CITY           SKY/WX    TMP DP  RH WIND       PRES   REMARKS
MUNCIE         CLOUDY    69  61  75 CALM      30.16F

$$

INZ060-061-067>069-081>083-085>088-120900-
SOUTHWEST INDIANA

CITY           SKY/WX    TMP DP  RH WIND       PRES   REMARKS
EVANSVILLE     CLOUDY    73  67  81 CALM      30.15S
HUNTINGBURG *+ CLOUDY    68  63  83 CALM      30.16S

$$

INZ062-063-066-070>080-084-089>092-120900-
SOUTH CENTRAL AND SOUTHEAST INDIANA

CITY           SKY/WX    TMP DP  RH WIND       PRES   REMARKS
BLOOMINGTON    CLOUDY    67  63  87 CALM      30.17S

$$



USA.gov is the U.S. government's official web portal to all federal, state and local government web resources and services.